Location: Newark
(49.8753°N, 23.0797°E)
Time: 02:20:20
(UTC+00:00)

ISS - Pass Details

Date: 02 July 2021
Orbit: 419 x 421 km, 51.6° (Epoch: 02 August)

Event Time Altitude Azimuth Distance (km) Brightness Sun altitude
Exits shadow 01:33:40 - 234° (SW) 1,619 -1.4 -6.7°
Reaches altitude 10° 01:33:58 10° 234° (SW) 1,499 -1.6 -6.7°
Maximum altitude 01:37:16 56° 155° (SSE) 503 -3.5 -6.3°
Drops below altitude 10° 01:40:35 10° 76° (ENE) 1,504 0.1 -6.0°
Sets 01:42:42 0° 72° (ENE) 2,370 1.3 -5.7°
